Location: Newark
(48.4281°N, 5.9947°E)
Time: 13:49:51
(UTC+00:00)

OTV 5 (USA 277) - Pass Details

Date: 29 October 2019
Orbit: 310 x 324 km, 54.5° (Epoch: 17 October)

Event Time Altitude Azimuth Distance (km) Brightness Sun altitude
Rises 17:17:50 0° 191° (S) 2,048 ? -9.8°
Reaches altitude 10° 17:20:36 10° 159° (SSE) 1,227 ? -10.2°
Maximum altitude 17:21:48 12° 132° (SE) 1,113 ? -10.4°
Enters shadow 17:22:16 12° 121° (ESE) 1,132 ? -10.5°
